VIV4410 MMMY-MMSM

Flight info

Callsign VIV4410
Flight time 1h 17m
Altitude 37000
Route KERGA1A KERGA UT132 VILSI UT168 TOREO TOREO1S
Aircraft A321/M-SDE3FGHIRWY/LB1

Departure

Time 2026-05-06 00:55
Airport Monterrey International Airport (MMMY)

Arrival

Time 2026-05-06 02:12
Airport Felipe Ángeles International Airport (MMSM)
Time Latitude Longitude Altitude Speed Heading
2026-05-06 00:20 25.77909 -100.11389 1278 ft 0 kts 211°
2026-05-06 00:45 25.77917 -100.11384 1277 ft 4 kts 211°
2026-05-06 00:46 25.77940 -100.11368 1277 ft 4 kts 212°
2026-05-06 00:46 25.77961 -100.11350 1281 ft 4 kts 232°
2026-05-06 00:46 25.77972 -100.11325 1277 ft 4 kts 272°
2026-05-06 00:46 25.77967 -100.11306 1278 ft 1 kts 301°
2026-05-06 00:47 25.77966 -100.11303 1278 ft 1 kts 301°
2026-05-06 00:50 25.77966 -100.11304 1278 ft 0 kts 301°
2026-05-06 00:51 25.77976 -100.11322 1277 ft 10 kts 302°
2026-05-06 00:51 25.78049 -100.11440 1280 ft 22 kts 299°
2026-05-06 00:51 25.78127 -100.11596 1282 ft 24 kts 299°
2026-05-06 00:51 25.78215 -100.11754 1286 ft 24 kts 302°
2026-05-06 00:52 25.78310 -100.11784 1288 ft 12 kts 34°
2026-05-06 00:52 25.78350 -100.11755 1288 ft 0 kts 34°
2026-05-06 00:53 25.78352 -100.11753 1288 ft 2 kts 34°
2026-05-06 00:53 25.78393 -100.11700 1289 ft 13 kts 92°
2026-05-06 00:54 25.78372 -100.11629 1288 ft 0 kts 118°
2026-05-06 00:54 25.78367 -100.11620 1287 ft 14 kts 118°
2026-05-06 00:54 25.78173 -100.11265 1279 ft 93 kts 122°
2026-05-06 00:55 25.77711 -100.10433 1270 ft 157 kts 121°
2026-05-06 00:55 25.77110 -100.09346 1892 ft 160 kts 120°
2026-05-06 00:55 25.76558 -100.08324 2805 ft 151 kts 120°
2026-05-06 00:55 25.76033 -100.07324 3576 ft 150 kts 119°
2026-05-06 00:56 25.75437 -100.06155 3610 ft 204 kts 120°
2026-05-06 00:56 25.74683 -100.04707 4148 ft 228 kts 121°
2026-05-06 00:56 25.73801 -100.03125 4753 ft 252 kts 122°
2026-05-06 00:56 25.72840 -100.01440 5576 ft 264 kts 122°
2026-05-06 00:57 25.71840 -99.99682 6420 ft 274 kts 123°
2026-05-06 00:57 25.70523 -99.98140 7139 ft 283 kts 150°
2026-05-06 00:57 25.68636 -99.97513 7880 ft 288 kts 176°
2026-05-06 00:57 25.66625 -99.97543 8674 ft 291 kts 186°
2026-05-06 00:58 25.64599 -99.97795 9478 ft 294 kts 189°
2026-05-06 00:58 25.62542 -99.98066 10062 ft 305 kts 188°
2026-05-06 00:58 25.60355 -99.98286 10221 ft 327 kts 185°
2026-05-06 00:58 25.58010 -99.98433 10392 ft 345 kts 183°
2026-05-06 00:59 25.55589 -99.98505 10869 ft 351 kts 181°
2026-05-06 00:59 25.53134 -99.98526 11470 ft 354 kts 181°
2026-05-06 00:59 25.50666 -99.98523 12099 ft 355 kts 181°
2026-05-06 00:59 25.48189 -99.98512 12747 ft 357 kts 181°
2026-05-06 01:00 25.45710 -99.98503 13384 ft 358 kts 181°
2026-05-06 01:00 25.43207 -99.98499 13977 ft 360 kts 182°
2026-05-06 01:00 25.40703 -99.98502 14575 ft 361 kts 182°
2026-05-06 01:00 25.38183 -99.98511 15151 ft 363 kts 182°
2026-05-06 01:01 25.35652 -99.98524 15723 ft 364 kts 183°
2026-05-06 01:01 25.33121 -99.98582 16297 ft 366 kts 184°
2026-05-06 01:01 25.30574 -99.98695 16870 ft 367 kts 185°
2026-05-06 01:01 25.28014 -99.98834 17386 ft 370 kts 187°
2026-05-06 01:02 25.25421 -99.98983 17917 ft 374 kts 186°
2026-05-06 01:02 25.22814 -99.99130 18414 ft 376 kts 186°
2026-05-06 01:02 25.20190 -99.99268 18892 ft 379 kts 186°
2026-05-06 01:02 25.17550 -99.99399 19385 ft 381 kts 187°
2026-05-06 01:03 25.14900 -99.99523 19847 ft 383 kts 186°
2026-05-06 01:03 25.12239 -99.99644 20310 ft 384 kts 187°
2026-05-06 01:03 25.09547 -99.99767 20686 ft 389 kts 187°
2026-05-06 01:03 25.06840 -99.99892 21132 ft 390 kts 187°
2026-05-06 01:04 25.04121 -100.00019 21532 ft 391 kts 187°
2026-05-06 01:04 25.01394 -100.00146 21855 ft 393 kts 186°
2026-05-06 01:04 24.98663 -100.00271 22180 ft 394 kts 187°
2026-05-06 01:04 24.95909 -100.00400 22514 ft 397 kts 187°
2026-05-06 01:05 24.93128 -100.00393 22814 ft 402 kts 182°
2026-05-06 01:05 24.90328 -100.00230 23177 ft 404 kts 182°
2026-05-06 01:05 24.87511 -100.00068 23519 ft 406 kts 182°
2026-05-06 01:05 24.84679 -99.99907 23725 ft 408 kts 182°
2026-05-06 01:06 24.81843 -99.99747 24002 ft 408 kts 182°
2026-05-06 01:06 24.78998 -99.99585 24277 ft 410 kts 182°
2026-05-06 01:06 24.76148 -99.99422 24596 ft 412 kts 182°
2026-05-06 01:06 24.73320 -99.99262 24881 ft 413 kts 182°
2026-05-06 01:07 24.70411 -99.99097 25167 ft 414 kts 182°
2026-05-06 01:07 24.68543 -99.98998 25350 ft 414 kts 182°
2026-05-06 01:07 24.65858 -99.98836 25510 ft 418 kts 181°
2026-05-06 01:07 24.63724 -99.98627 25584 ft 424 kts 172°
2026-05-06 01:08 24.60822 -99.97967 25745 ft 426 kts 176°
2026-05-06 01:08 24.57879 -99.97700 26077 ft 422 kts 182°
2026-05-06 01:08 24.54945 -99.97688 26371 ft 421 kts 185°
2026-05-06 01:08 24.52004 -99.97758 26662 ft 423 kts 185°
2026-05-06 01:09 24.49054 -99.97798 26946 ft 425 kts 184°
2026-05-06 01:09 24.46090 -99.97759 27255 ft 427 kts 182°
2026-05-06 01:09 24.43120 -99.97641 27539 ft 429 kts 181°
2026-05-06 01:09 24.40130 -99.97463 27833 ft 431 kts 181°
2026-05-06 01:10 24.37146 -99.97259 28125 ft 432 kts 180°
2026-05-06 01:10 24.34149 -99.97052 28400 ft 433 kts 181°
2026-05-06 01:10 24.31121 -99.96855 28660 ft 435 kts 181°
2026-05-06 01:10 24.28093 -99.96673 28879 ft 436 kts 181°
2026-05-06 01:11 24.25068 -99.96501 29132 ft 437 kts 181°
2026-05-06 01:11 24.22029 -99.96335 29387 ft 438 kts 181°
2026-05-06 01:11 24.18980 -99.96170 29623 ft 439 kts 181°
2026-05-06 01:11 24.15929 -99.96002 29845 ft 440 kts 181°
2026-05-06 01:12 24.12854 -99.95831 30025 ft 442 kts 181°
2026-05-06 01:12 24.09777 -99.95654 30194 ft 443 kts 181°
2026-05-06 01:12 24.06700 -99.95478 30374 ft 444 kts 181°
2026-05-06 01:12 24.03621 -99.95302 30573 ft 443 kts 181°
2026-05-06 01:13 24.00543 -99.95127 30788 ft 443 kts 181°
2026-05-06 01:13 23.97460 -99.94951 31018 ft 442 kts 181°
2026-05-06 01:13 23.94388 -99.94778 31249 ft 443 kts 181°
2026-05-06 01:13 23.91315 -99.94606 31492 ft 441 kts 181°
2026-05-06 01:14 23.85187 -99.94262 31976 ft 440 kts 181°
2026-05-06 01:14 23.82172 -99.94090 32208 ft 440 kts 181°
2026-05-06 01:14 23.79115 -99.93915 32445 ft 439 kts 181°
2026-05-06 01:15 23.76029 -99.93741 32673 ft 439 kts 181°
2026-05-06 01:15 23.72983 -99.93568 32881 ft 439 kts 181°
2026-05-06 01:15 23.69926 -99.93396 33085 ft 439 kts 181°
2026-05-06 01:15 23.66881 -99.93225 33282 ft 439 kts 181°
2026-05-06 01:16 23.63876 -99.93057 33505 ft 438 kts 181°
2026-05-06 01:16 23.61823 -99.92941 33650 ft 438 kts 181°
2026-05-06 01:16 23.58776 -99.92769 33856 ft 438 kts 181°
2026-05-06 01:16 23.54750 -99.92545 34082 ft 437 kts 181°
2026-05-06 01:17 23.52695 -99.92432 34195 ft 437 kts 181°
2026-05-06 01:17 23.48675 -99.92215 34421 ft 438 kts 181°
2026-05-06 01:17 23.45631 -99.92050 34591 ft 438 kts 181°
2026-05-06 01:17 23.42597 -99.91881 34776 ft 437 kts 180°
2026-05-06 01:18 23.40532 -99.91763 34883 ft 438 kts 180°
2026-05-06 01:18 23.37498 -99.91588 35058 ft 438 kts 180°
2026-05-06 01:18 23.34454 -99.91412 35219 ft 438 kts 180°
2026-05-06 01:18 23.31404 -99.91238 35419 ft 438 kts 180°
2026-05-06 01:19 23.28398 -99.91069 35586 ft 438 kts 180°
2026-05-06 01:19 23.25354 -99.90900 35766 ft 438 kts 180°
2026-05-06 01:19 23.22275 -99.90731 35929 ft 438 kts 180°
2026-05-06 01:19 23.19271 -99.90568 36104 ft 438 kts 181°
2026-05-06 01:20 23.16217 -99.90402 36262 ft 438 kts 180°
2026-05-06 01:20 23.13176 -99.90233 36424 ft 438 kts 181°
2026-05-06 01:20 23.10136 -99.90064 36540 ft 438 kts 180°
2026-05-06 01:20 23.07095 -99.89893 36706 ft 438 kts 180°
2026-05-06 01:21 23.00980 -99.89553 36753 ft 443 kts 180°
2026-05-06 01:21 22.94786 -99.89210 36755 ft 449 kts 180°
2026-05-06 01:22 22.88515 -99.88863 36755 ft 454 kts 180°
2026-05-06 01:22 22.82174 -99.88517 36741 ft 459 kts 180°
2026-05-06 01:23 22.75754 -99.88160 36743 ft 464 kts 179°
2026-05-06 01:23 22.72533 -99.87976 36878 ft 463 kts 179°
2026-05-06 01:23 22.69334 -99.87791 36792 ft 460 kts 179°
2026-05-06 01:24 22.66147 -99.87609 36522 ft 457 kts 179°
2026-05-06 01:24 22.62976 -99.87431 36191 ft 455 kts 180°
2026-05-06 01:24 22.59832 -99.87258 35851 ft 454 kts 180°
2026-05-06 01:24 22.56670 -99.87087 35513 ft 453 kts 180°
2026-05-06 01:25 22.53534 -99.86916 35177 ft 451 kts 180°
2026-05-06 01:25 22.50404 -99.86745 34849 ft 450 kts 180°
2026-05-06 01:25 22.47274 -99.86572 34517 ft 449 kts 180°
2026-05-06 01:25 22.44159 -99.86401 34196 ft 448 kts 180°
2026-05-06 01:26 22.41050 -99.86233 33868 ft 448 kts 180°
2026-05-06 01:26 22.37952 -99.86066 33490 ft 447 kts 180°
2026-05-06 01:26 22.34833 -99.85899 33110 ft 447 kts 180°
2026-05-06 01:26 22.31718 -99.85729 32728 ft 447 kts 180°
2026-05-06 01:27 22.28612 -99.85557 32351 ft 446 kts 180°
2026-05-06 01:27 22.25553 -99.85385 31988 ft 446 kts 180°
2026-05-06 01:27 22.22451 -99.85211 31628 ft 446 kts 180°
2026-05-06 01:27 22.19356 -99.85039 31272 ft 446 kts 180°
2026-05-06 01:28 22.16256 -99.84870 30911 ft 446 kts 180°
2026-05-06 01:28 22.13157 -99.84701 30548 ft 446 kts 180°
2026-05-06 01:28 22.10022 -99.84532 29558 ft 459 kts 180°
2026-05-06 01:28 22.06795 -99.84357 28251 ft 464 kts 179°
2026-05-06 01:29 22.03591 -99.84178 27020 ft 459 kts 178°
2026-05-06 01:29 22.00426 -99.84000 25859 ft 453 kts 178°
2026-05-06 01:29 21.97282 -99.83825 24750 ft 448 kts 178°
2026-05-06 01:29 21.94182 -99.83654 23692 ft 444 kts 177°
2026-05-06 01:30 21.91118 -99.83486 22557 ft 438 kts 177°
2026-05-06 01:30 21.88030 -99.83318 21398 ft 452 kts 177°
2026-05-06 01:30 21.84836 -99.83147 20422 ft 464 kts 177°
2026-05-06 01:30 21.81610 -99.82973 20015 ft 463 kts 178°
2026-05-06 01:31 21.78420 -99.82799 19817 ft 455 kts 178°
2026-05-06 01:31 21.75284 -99.82627 19719 ft 445 kts 177°
2026-05-06 01:31 21.72236 -99.82460 19745 ft 432 kts 178°
2026-05-06 01:31 21.69278 -99.82299 19746 ft 420 kts 178°
2026-05-06 01:32 21.66401 -99.82142 19742 ft 408 kts 178°
2026-05-06 01:32 21.63599 -99.81988 19754 ft 398 kts 178°
2026-05-06 01:32 21.60867 -99.81841 19752 ft 388 kts 178°
2026-05-06 01:32 21.58198 -99.81696 19753 ft 380 kts 178°
2026-05-06 01:33 21.55586 -99.81552 19750 ft 372 kts 178°
2026-05-06 01:33 21.53035 -99.81410 19749 ft 364 kts 178°
2026-05-06 01:33 21.50531 -99.81273 19761 ft 357 kts 178°
2026-05-06 01:33 21.48078 -99.81142 19756 ft 349 kts 178°
2026-05-06 01:34 21.45672 -99.81014 19751 ft 343 kts 178°
2026-05-06 01:34 21.43316 -99.80886 19753 ft 336 kts 178°
2026-05-06 01:34 21.41006 -99.80760 19754 ft 329 kts 178°
2026-05-06 01:34 21.38743 -99.80635 19754 ft 322 kts 178°
2026-05-06 01:35 21.36525 -99.80512 19753 ft 316 kts 178°
2026-05-06 01:35 21.34354 -99.80395 19755 ft 310 kts 178°
2026-05-06 01:35 21.32218 -99.80281 19755 ft 305 kts 178°
2026-05-06 01:35 21.30121 -99.80168 19754 ft 299 kts 178°
2026-05-06 01:36 21.28061 -99.80058 19753 ft 294 kts 178°
2026-05-06 01:36 21.26037 -99.79948 19752 ft 289 kts 178°
2026-05-06 01:36 21.24051 -99.79840 19759 ft 283 kts 178°
2026-05-06 01:36 21.22100 -99.79733 19760 ft 278 kts 178°
2026-05-06 01:37 21.20114 -99.79627 19765 ft 295 kts 178°
2026-05-06 01:37 21.17999 -99.79515 19762 ft 313 kts 178°
2026-05-06 01:37 21.15760 -99.79397 19764 ft 331 kts 178°
2026-05-06 01:37 21.13399 -99.79269 19763 ft 348 kts 178°
2026-05-06 01:38 21.10923 -99.79134 19775 ft 364 kts 178°
2026-05-06 01:38 21.08338 -99.78994 19776 ft 379 kts 178°
2026-05-06 01:38 21.05689 -99.78851 19775 ft 393 kts 178°
2026-05-06 01:38 21.02873 -99.78701 19775 ft 406 kts 178°
2026-05-06 01:39 21.00051 -99.78580 19772 ft 418 kts 178°
2026-05-06 01:39 20.97104 -99.78480 19783 ft 429 kts 179°
2026-05-06 01:39 20.94078 -99.78387 19783 ft 440 kts 179°
2026-05-06 01:39 20.90986 -99.78296 19783 ft 449 kts 179°
2026-05-06 01:40 20.87832 -99.78202 19779 ft 457 kts 179°
2026-05-06 01:40 20.84623 -99.78101 19786 ft 465 kts 179°
2026-05-06 01:40 20.81359 -99.77991 19782 ft 473 kts 178°
2026-05-06 01:40 20.78070 -99.77887 20040 ft 463 kts 179°
2026-05-06 01:41 20.74978 -99.77795 20522 ft 426 kts 179°
2026-05-06 01:41 20.72123 -99.77668 20787 ft 401 kts 174°
2026-05-06 01:41 20.69404 -99.77053 20788 ft 399 kts 162°
2026-05-06 01:41 20.66793 -99.76055 20788 ft 397 kts 161°
2026-05-06 01:42 20.64202 -99.75072 20785 ft 395 kts 161°
2026-05-06 01:42 20.61613 -99.74110 20786 ft 393 kts 161°
2026-05-06 01:42 20.59034 -99.73167 20798 ft 391 kts 162°
2026-05-06 01:42 20.56464 -99.72238 20796 ft 389 kts 162°
2026-05-06 01:43 20.53903 -99.71314 20795 ft 388 kts 162°
2026-05-06 01:43 20.51351 -99.70392 20796 ft 386 kts 161°
2026-05-06 01:43 20.48809 -99.69470 20796 ft 385 kts 161°
2026-05-06 01:43 20.46277 -99.68550 20811 ft 384 kts 161°
2026-05-06 01:44 20.43753 -99.67629 20818 ft 383 kts 161°
2026-05-06 01:44 20.41235 -99.66708 20819 ft 382 kts 161°
2026-05-06 01:44 20.38733 -99.65792 20818 ft 374 kts 161°
2026-05-06 01:44 20.36334 -99.64909 20817 ft 356 kts 159°
2026-05-06 01:45 20.34186 -99.63758 20812 ft 339 kts 146°
2026-05-06 01:45 20.32403 -99.62218 20834 ft 323 kts 135°
2026-05-06 01:45 20.31017 -99.60413 20833 ft 308 kts 125°
2026-05-06 01:45 20.29815 -99.58544 20836 ft 305 kts 126°
2026-05-06 01:46 20.28616 -99.56696 20833 ft 302 kts 127°
2026-05-06 01:46 20.27416 -99.54857 20833 ft 303 kts 126°
2026-05-06 01:46 20.26197 -99.52996 20843 ft 313 kts 127°
2026-05-06 01:46 20.24914 -99.51040 20842 ft 331 kts 126°
2026-05-06 01:47 20.23573 -99.48990 20838 ft 342 kts 126°
2026-05-06 01:47 20.22208 -99.46901 20835 ft 345 kts 126°
2026-05-06 01:47 20.20990 -99.44711 20853 ft 344 kts 111°
2026-05-06 01:47 20.20528 -99.42223 20855 ft 345 kts 90°
2026-05-06 01:48 20.20935 -99.39744 20853 ft 348 kts 70°
2026-05-06 01:48 20.21852 -99.37357 20855 ft 349 kts 68°
2026-05-06 01:48 20.22792 -99.34971 20836 ft 351 kts 69°
2026-05-06 01:48 20.23739 -99.32568 20837 ft 353 kts 68°
2026-05-06 01:49 20.24465 -99.30087 20834 ft 351 kts 83°
2026-05-06 01:49 20.24614 -99.27504 20837 ft 350 kts 89°
2026-05-06 01:49 20.24683 -99.24917 20835 ft 350 kts 90°
2026-05-06 01:49 20.24755 -99.22335 20838 ft 350 kts 90°
2026-05-06 01:50 20.24829 -99.19745 20837 ft 350 kts 90°
2026-05-06 01:50 20.24760 -99.17165 20833 ft 348 kts 102°
2026-05-06 01:50 20.24048 -99.14703 20257 ft 352 kts 119°
2026-05-06 01:50 20.22540 -99.12622 19394 ft 362 kts 139°
2026-05-06 01:51 20.20959 -99.11393 18719 ft 369 kts 146°
2026-05-06 01:51 20.18825 -99.09865 17776 ft 367 kts 145°
2026-05-06 01:51 20.16736 -99.08359 16822 ft 358 kts 146°
2026-05-06 01:51 20.14700 -99.06877 15903 ft 351 kts 146°
2026-05-06 01:52 20.12711 -99.05420 15024 ft 344 kts 146°
2026-05-06 01:52 20.10778 -99.04001 14438 ft 329 kts 146°
2026-05-06 01:52 20.08967 -99.02671 14061 ft 312 kts 146°
2026-05-06 01:52 20.07225 -99.01393 13702 ft 297 kts 146°
2026-05-06 01:53 20.05549 -99.00166 13331 ft 290 kts 146°
2026-05-06 01:53 20.03891 -98.98951 12980 ft 289 kts 146°
2026-05-06 01:53 20.02247 -98.97747 12634 ft 282 kts 146°
2026-05-06 01:53 20.00671 -98.96596 12303 ft 270 kts 146°
2026-05-06 01:54 19.99143 -98.95482 12003 ft 260 kts 146°
2026-05-06 01:54 19.97708 -98.94435 11723 ft 241 kts 146°
2026-05-06 01:54 19.96376 -98.93463 11418 ft 224 kts 146°
2026-05-06 01:54 19.95132 -98.92553 11148 ft 210 kts 146°
2026-05-06 01:55 19.93959 -98.91697 10896 ft 199 kts 146°
2026-05-06 01:55 19.92927 -98.90788 10753 ft 184 kts 140°
2026-05-06 01:55 19.91973 -98.89920 10683 ft 179 kts 141°
2026-05-06 01:55 19.91060 -98.89095 10623 ft 168 kts 138°
2026-05-06 01:56 19.90182 -98.88300 10547 ft 164 kts 139°
2026-05-06 01:56 19.89226 -98.87664 10469 ft 163 kts 158°
2026-05-06 01:56 19.88112 -98.87462 10402 ft 163 kts 180°
2026-05-06 01:56 19.86997 -98.87733 10268 ft 167 kts 203°
2026-05-06 01:57 19.86071 -98.88466 10098 ft 168 kts 225°
2026-05-06 01:57 19.85307 -98.89404 9982 ft 168 kts 223°
2026-05-06 01:57 19.84541 -98.90343 9955 ft 168 kts 227°
2026-05-06 01:57 19.83777 -98.91280 9958 ft 168 kts 227°
2026-05-06 01:58 19.82995 -98.92207 9975 ft 170 kts 223°
2026-05-06 01:58 19.82328 -98.93252 9840 ft 176 kts 249°
2026-05-06 01:58 19.82008 -98.94493 9539 ft 173 kts 244°
2026-05-06 01:58 19.81414 -98.95578 9215 ft 168 kts 232°
2026-05-06 01:59 19.80661 -98.96520 9054 ft 170 kts 224°
2026-05-06 01:59 19.79903 -98.97449 8887 ft 167 kts 220°
2026-05-06 01:59 19.78928 -98.98103 8755 ft 168 kts 209°
2026-05-06 01:59 19.77940 -98.98788 8466 ft 171 kts 216°
2026-05-06 02:00 19.77051 -98.99642 7900 ft 174 kts 227°
2026-05-06 02:00 19.76225 -99.00618 7620 ft 178 kts 226°
2026-05-06 02:00 19.75354 -99.01553 7391 ft 171 kts 231°
2026-05-06 02:00 19.74605 -99.02534 7489 ft 178 kts 237°
2026-05-06 02:01 19.73788 -99.03619 7983 ft 192 kts 230°
2026-05-06 02:01 19.72907 -99.04674 8662 ft 190 kts 228°
2026-05-06 02:01 19.72019 -99.05707 8913 ft 189 kts 224°
2026-05-06 02:01 19.71240 -99.06835 8898 ft 194 kts 244°
2026-05-06 02:02 19.71113 -99.08263 8350 ft 202 kts 290°
2026-05-06 02:02 19.71850 -99.09319 8449 ft 157 kts 337°
2026-05-06 02:02 19.72877 -99.09397 8649 ft 155 kts 26°
2026-05-06 02:02 19.73792 -99.08728 8822 ft 167 kts 36°
2026-05-06 02:03 19.74877 -99.08156 8883 ft 182 kts 25°
2026-05-06 02:03 19.76082 -99.07612 8952 ft 194 kts 25°
2026-05-06 02:03 19.77373 -99.07025 9068 ft 210 kts 26°
2026-05-06 02:03 19.78732 -99.06402 9404 ft 214 kts 25°
2026-05-06 02:04 19.80122 -99.05760 9689 ft 226 kts 27°
2026-05-06 02:04 19.81571 -99.05078 10236 ft 230 kts 27°
2026-05-06 02:04 19.82997 -99.04401 11281 ft 212 kts 26°
2026-05-06 02:04 19.84294 -99.03784 11891 ft 214 kts 26°
2026-05-06 02:05 19.85744 -99.02976 11829 ft 256 kts 34°
2026-05-06 02:05 19.87223 -99.01821 11943 ft 266 kts 43°
2026-05-06 02:05 19.88335 -99.00245 11373 ft 272 kts 64°
2026-05-06 02:05 19.89265 -98.98466 10751 ft 277 kts 61°
2026-05-06 02:06 19.90247 -98.96785 10628 ft 256 kts 59°
2026-05-06 02:06 19.91195 -98.95313 10706 ft 223 kts 56°
2026-05-06 02:06 19.91972 -98.94033 10788 ft 189 kts 67°
2026-05-06 02:06 19.92308 -98.92762 10835 ft 174 kts 85°
2026-05-06 02:07 19.92281 -98.91498 10853 ft 170 kts 103°
2026-05-06 02:07 19.91920 -98.90316 10858 ft 168 kts 119°
2026-05-06 02:07 19.91258 -98.89306 10873 ft 166 kts 134°
2026-05-06 02:07 19.90407 -98.88489 10769 ft 165 kts 139°
2026-05-06 02:08 19.89510 -98.87776 10626 ft 160 kts 152°
2026-05-06 02:08 19.88445 -98.87443 10468 ft 161 kts 173°
2026-05-06 02:08 19.87327 -98.87578 10285 ft 164 kts 196°
2026-05-06 02:08 19.86341 -98.88177 10145 ft 167 kts 219°
2026-05-06 02:09 19.85563 -98.89091 9993 ft 167 kts 225°
2026-05-06 02:09 19.84802 -98.90024 9821 ft 167 kts 226°
2026-05-06 02:09 19.84044 -98.90954 9666 ft 167 kts 225°
2026-05-06 02:09 19.83286 -98.91881 9510 ft 166 kts 227°
2026-05-06 02:10 19.82523 -98.92816 9324 ft 167 kts 225°
2026-05-06 02:10 19.81757 -98.93754 9108 ft 167 kts 226°
2026-05-06 02:10 19.80998 -98.94684 8926 ft 165 kts 226°
2026-05-06 02:10 19.80239 -98.95612 8795 ft 169 kts 228°
2026-05-06 02:11 19.79464 -98.96561 8603 ft 173 kts 230°
2026-05-06 02:11 19.78671 -98.97534 8223 ft 173 kts 231°
2026-05-06 02:11 19.77893 -98.98504 8162 ft 174 kts 228°
2026-05-06 02:11 19.77089 -98.99474 7731 ft 175 kts 229°
2026-05-06 02:12 19.76302 -99.00438 7466 ft 173 kts 228°
2026-05-06 02:12 19.75526 -99.01400 7363 ft 158 kts 226°
2026-05-06 02:12 19.75135 -99.01843 7365 ft 20 kts 230°
2026-05-06 02:12 19.75116 -99.01852 7365 ft 2 kts 181°
2026-05-06 02:13 19.75085 -99.01835 7365 ft 13 kts 139°
2026-05-06 02:13 19.75013 -99.01764 7364 ft 1 kts 129°
2026-05-06 02:14 19.74980 -99.01765 7366 ft 8 kts 221°
2026-05-06 02:14 19.74925 -99.01873 7363 ft 26 kts 227°
2026-05-06 02:14 19.74790 -99.02016 7363 ft 28 kts 230°
2026-05-06 02:14 19.74651 -99.02172 7362 ft 30 kts 231°
2026-05-06 02:15 19.74574 -99.02274 7362 ft 0 kts 230°
2026-05-06 02:15 19.74543 -99.02271 7363 ft 15 kts 161°
2026-05-06 02:15 19.74517 -99.02229 7363 ft 12 kts 73°
2026-05-06 02:15 19.74545 -99.02121 7363 ft 18 kts 108°
2026-05-06 02:16 19.74448 -99.02000 7365 ft 25 kts 131°
2026-05-06 02:16 19.74307 -99.01871 7364 ft 28 kts 141°
2026-05-06 02:16 19.74152 -99.01734 7363 ft 30 kts 139°
2026-05-06 02:16 19.73990 -99.01584 7364 ft 31 kts 138°
2026-05-06 02:17 19.73819 -99.01597 7362 ft 29 kts 225°
2026-05-06 02:17 19.73679 -99.01759 7363 ft 31 kts 232°
2026-05-06 02:17 19.73638 -99.01816 7362 ft 0 kts 232°
2026-05-06 02:18 19.73638 -99.01818 7362 ft 1 kts 245°
2026-05-06 02:18 19.73651 -99.01834 7362 ft 6 kts 312°
2026-05-06 02:18 19.73693 -99.01876 7364 ft 1 kts 317°
2026-05-06 02:18 19.73699 -99.01883 7363 ft 0 kts 315°
2026-05-06 02:19 19.73700 -99.01883 7362 ft 0 kts 316°